Hourly Data Report for September 17, 2017

All times are specified in Local Standard Time (LST). Add 1 hour to adjust for Daylight Saving Time where and when it is observed.

POINT LEPREAU CS
NEW BRUNSWICK

45°04'23.040" N
66°26'57.090" W
6.00 m
8104201
71699
WPE

Download Data

Hourly Data (September 2017)
Hourly Data Report for September 17, 2017
Temp Definition
°C
Dew Point Temp Definition
°C
Rel Hum Definition
%
Wind Dir Definition
10's deg

Wind Spd Definition
km/h
Visibility Definition
km
Stn Press Definition
kPa
Hmdx Definition


Wind Chill Definition


Weather Definition


TIME
00:00 13.7 LegendMM 100 11 2   102.01     LegendNANA
01:00 13.8 LegendMM 100 5 4   102.03     LegendNANA
02:00 13.9 LegendMM 100 8 4   102.01     LegendNANA
03:00 13.9 LegendMM 100 8 11   102.00     LegendNANA
04:00 13.6 LegendMM 100 11 9   102.03     LegendNANA
05:00 13.9 LegendMM 100 7 5   102.08     LegendNANA
06:00 14.0 LegendMM 100 9 8   102.11     LegendNANA
07:00 13.9 LegendMM 100 8 6   102.13     LegendNANA
08:00 13.8 LegendMM 100 15 6   102.14     LegendNANA
09:00 14.1 LegendMM 100 17 6   102.21     LegendNANA
10:00 14.6 LegendMM 100 18 3   102.17     LegendNANA
11:00 14.4 LegendMM 100 14 4   102.19     LegendNANA
12:00 14.6 LegendMM 100 13 6   102.18     LegendNANA
13:00 15.4 LegendMM 100 16 8   102.11     LegendNANA
14:00 14.8 LegendMM 100 15 6   102.08     LegendNANA
15:00 15.1 LegendMM 100 16 7   102.06     LegendNANA
16:00 14.9 LegendMM 100 16 6   102.05     LegendNANA
17:00 14.8 LegendMM 100 19 12   102.07     LegendNANA
18:00 14.2 LegendMM 100 20 8   102.07     LegendNANA
19:00 13.9 LegendMM 100 20 7   102.08     LegendNANA
20:00 13.7 LegendMM 100 26 4   102.09     LegendNANA
21:00 13.3 LegendMM 100 30 7   102.13     LegendNANA
22:00 13.4 LegendMM 100 31 6   102.15     LegendNANA
23:00 13.5 LegendMM 100 22 4   102.15     LegendNANA

Notes on Data Quality.

Legend

  • E = Estimated
  • M = Missing
  • NA = Not Available
  • ‡ = Partner data that is not subject to review by the National Climate Archives
Date modified: